Alexandria, LA

1:49 PM CDT on October 21, 2017 (GMT -0500)
Alexandria International

Weather History for KAEX - January, 2013

Change the Weather History Date:

Wednesday, January 9, 2013

  Actual Average Record
Temperature  
Mean Temperature 63 °F 49 °F  
Max Temperature 65 °F 59 °F 80 °F (1957)
Min Temperature 61 °F 39 °F 16 °F (2010)
Degree Days  
Heating Degree Days 2 16  
Month to date heating degree days 150 144  
Since 1 July heating degree days 859 933  
Growing Degree Days 12 (Base 50)    
Moisture  
Dew Point 63 °F    
Average Humidity 97    
Maximum Humidity 100    
Minimum Humidity 93    
Precipitation  
Precipitation 3.85 in 0.14 in 3.85 in (2013)
Month to date precipitation 7.51 1.33  
Year to date precipitation 7.51 1.33  
Snow  
Snow 0.00 in - T in (1971)
Month to date snowfall 0.0  
Since 1 July snowfall 0.0  
Snow Depth 0.00 in    
Sea Level Pressure  
Sea Level Pressure 30.09 in    
Wind  
Wind Speed 8 mph (East)    
Max Wind Speed 16 mph    
Max Gust Speed 22 mph    
Visibility 6 miles    
Events Rain , Thunderstorm    
T = Trace of Precipitation, MM = Missing Value Source: NWS Daily Summary

Daily Weather History Graph

Daily Weather History Graph

Search for Another Location

Airport or City:

Trip Planner

Search our weather history database for the weather conditions in past years. The results will help you decide how hot, cold, wet, or windy it might be!

Date:

Astronomy

Jan. 09, 2013 Rise Set
Actual Time 7:10 AM CST 5:25 PM CST
Civil Twilight 6:43 AM CST 5:51 PM CST
Nautical Twilight 6:13 AM CST 6:21 PM CST
Astronomical Twilight 5:44 AM CST 6:50 PM CST
Moon 4:49 AM CST (1/9) 3:27 PM CST (1/9)
Length of Visible Light 11h 07m
Length of Day
10h 14m
Waning Crescent, 6% of the Moon is Illuminated
Jan 9
Waning Crescent
Jan 11
New
Jan 18
First Quarter
Jan 26
Full
Feb 3
Last Quarter

Hourly Weather History & Observations

Time (CST) Temp. Dew Point Humidity Pressure Visibility Wind Dir Wind Speed Gust Speed Precip Events Conditions
12:53 AM 62.1 °F 62.1 °F 100% 30.06 in 10.0 mi East 4.6 mph - 0.00 in   Overcast
1:02 AM 62.6 °F 60.8 °F 94% 30.04 in 10.0 mi East 5.8 mph - N/A   Overcast
1:53 AM 62.1 °F 61.0 °F 96% 30.05 in 10.0 mi East 6.9 mph - N/A   Overcast
2:48 AM 60.8 °F 60.8 °F 100% 30.04 in 10.0 mi East 5.8 mph - N/A   Overcast
2:53 AM 61.0 °F 60.1 °F 97% 30.05 in 10.0 mi ENE 4.6 mph - N/A   Overcast
3:53 AM 61.0 °F 60.1 °F 97% 30.06 in 10.0 mi East 5.8 mph - N/A   Mostly Cloudy
4:53 AM 61.0 °F 60.1 °F 97% 30.05 in 10.0 mi East 10.4 mph - N/A   Mostly Cloudy
5:53 AM 61.0 °F 60.1 °F 97% 30.08 in 10.0 mi East 4.6 mph - N/A   Overcast
6:53 AM 61.0 °F 60.1 °F 97% 30.10 in 10.0 mi ESE 5.8 mph - N/A   Overcast
7:53 AM 62.1 °F 61.0 °F 96% 30.11 in 10.0 mi East 6.9 mph - N/A   Overcast
8:53 AM 63.0 °F 62.1 °F 97% 30.13 in 10.0 mi East 8.1 mph - N/A   Overcast
9:53 AM 64.0 °F 63.0 °F 96% 30.16 in 8.0 mi ESE 6.9 mph - 0.01 in Rain Light Rain
10:53 AM 64.0 °F 64.0 °F 100% 30.15 in 6.0 mi ESE 6.9 mph - 0.03 in Rain Light Rain
11:53 AM 64.0 °F 64.0 °F 100% 30.12 in 5.0 mi East 5.8 mph - 0.01 in Rain Rain
12:36 PM 64.4 °F 62.6 °F 94% 30.08 in 3.0 mi East 6.9 mph - 0.10 in Rain , Thunderstorm Heavy Rain
12:51 PM 64.4 °F 62.6 °F 94% 30.08 in 3.0 mi East 9.2 mph - 0.15 in Rain Heavy Rain
12:53 PM 64.0 °F 63.0 °F 96% 30.09 in 3.0 mi East 10.4 mph - 0.15 in Rain Heavy Rain
1:00 PM 64.4 °F 62.6 °F 94% 30.08 in 3.0 mi East 9.2 mph - 0.02 in Rain Heavy Rain
1:15 PM 64.4 °F 62.6 °F 94% 30.07 in 2.0 mi East 10.4 mph - 0.11 in Rain Heavy Rain
1:26 PM 62.6 °F 62.6 °F 100% 30.05 in 3.0 mi ENE 11.5 mph - 0.14 in Rain Rain
1:42 PM 64.4 °F 62.6 °F 94% 30.05 in 6.0 mi East 8.1 mph - 0.17 in Rain , Thunderstorm Rain
1:53 PM 64.0 °F 63.0 °F 96% 30.06 in 6.0 mi East 6.9 mph - 0.20 in Rain Rain
2:53 PM 64.0 °F 64.0 °F 100% 30.07 in 4.0 mi East 10.4 mph - 0.14 in Rain Heavy Rain
3:53 PM 64.0 °F 64.0 °F 100% 30.06 in 5.0 mi East 11.5 mph - 0.18 in Rain Rain
4:10 PM 64.4 °F 64.4 °F 100% 30.06 in 4.0 mi East 12.7 mph - 0.08 in Rain , Thunderstorm Heavy Thunderstorms and Rain
4:25 PM 64.4 °F 64.4 °F 100% 30.05 in 5.0 mi East 9.2 mph - 0.15 in Rain Rain
4:53 PM 64.0 °F 64.0 °F 100% 30.07 in 3.0 mi ENE 10.4 mph - 0.30 in Rain Heavy Rain
5:00 PM 64.4 °F 64.4 °F 100% 30.06 in 3.0 mi ENE 9.2 mph - 0.04 in Rain Heavy Rain
5:09 PM 64.4 °F 64.4 °F 100% 30.07 in 8.0 mi ENE 6.9 mph - 0.05 in Rain Light Rain
5:19 PM 64.4 °F 64.4 °F 100% 30.07 in 10.0 mi Variable 6.9 mph - 0.07 in Rain , Thunderstorm Rain
5:51 PM 64.4 °F 64.4 °F 100% 30.08 in 2.5 mi ENE 9.2 mph - 0.27 in Rain Heavy Rain
5:53 PM 64.0 °F 64.0 °F 100% 30.09 in 2.5 mi NE 8.1 mph - 0.30 in Rain Heavy Rain
6:07 PM 64.4 °F 64.4 °F 100% 30.08 in 2.0 mi Variable 4.6 mph - 0.15 in Rain Heavy Rain
6:30 PM 64.4 °F 62.6 °F 94% 30.10 in 0.8 mi West 10.4 mph 21.9 mph 0.76 in Rain Heavy Rain
6:43 PM 64.4 °F 64.4 °F 100% 30.12 in 1.0 mi SSW 9.2 mph - 1.23 in Rain Heavy Rain
6:46 PM 64.4 °F 64.4 °F 100% 30.13 in 2.0 mi SSW 9.2 mph - 1.25 in Rain Heavy Rain
6:53 PM 64.0 °F 64.0 °F 100% 30.12 in 2.5 mi SE 8.1 mph - 1.34 in Rain Heavy Rain
7:05 PM 64.4 °F 62.6 °F 94% 30.10 in 6.0 mi ESE 12.7 mph - 0.03 in Rain Rain
7:53 PM 64.0 °F 63.0 °F 96% 30.13 in 5.0 mi SE 9.2 mph - 0.18 in Rain Heavy Rain
8:53 PM 64.0 °F 63.0 °F 96% 30.12 in 6.0 mi ESE 8.1 mph - 0.25 in Rain Heavy Rain
9:53 PM 64.0 °F 64.0 °F 100% 30.10 in 5.0 mi ENE 8.1 mph - 0.22 in Rain Heavy Rain
10:43 PM 62.6 °F 62.6 °F 100% 30.11 in 4.0 mi Calm Calm - 0.19 in Rain Heavy Rain
10:53 PM 63.0 °F 63.0 °F 100% 30.11 in 6.0 mi East 12.7 mph - 0.23 in Rain Heavy Rain
11:53 PM 64.9 °F 64.9 °F 100% 30.14 in 4.0 mi SE 5.8 mph - 0.30 in Rain Heavy Rain